User: anonymous   Login
Location: Newark
(48.5667°N, 7.8167°E)
Time: 16:31:57
(UTC+00:00)
Language:

DUCHIFAT 1 - Orbit

View from above orbital plane
View from above orbital plane
View from above satellite
View from above satellite

Ground track
Ground track

The orbit data is extracted from the following two-line orbital elements,

1 40021U 14033M   20184.84993640 +.00000127 +00000-0 +18782-4 0  9996
2 40021 097.9429 116.1808 0011502 233.4140 126.6020 14.90921345328187
Epoch (UTC): 02 July 2020 20:23:54
Eccentricity: 0.0011502
inclination: 97.9429°
perigee height: 587 km
apogee height: 603 km
right ascension of ascending node: 116.1808°
argument of perigee: 233.4140°
revolutions per day: 14.90921345
mean anomaly at epoch: 126.6020°
orbit number at epoch: 32818

The dashed part of the orbit path shows where the satellite is in the earth's shadow,  

DLR